Weather observations for the past three days for
Sarasota / Bradenton, Sarasota-Bradenton International Airport
| Date | Time (edt) | Wind (mph) | Vis. (mi.) | Weather | Sky Cond. | Temperature (ºF) | Relative Humidity | Wind Chill (°F) | Heat Index (°F) | Pressure | Precipitation (in) | ||||||
|---|---|---|---|---|---|---|---|---|---|---|---|---|---|---|---|---|---|
| Air | Dwpt | 6 hour | altimeter (in) | sea level (mb) | 1 hr | 3 hr | 6 hr | ||||||||||
| Max. | Min. | ||||||||||||||||
| 09 | 00:53 | N 5 | 10.00 | Fair | CLR | 79 | 73 | 82% | 82 | 29.96 | 1014.4 | ||||||
| 08 | 23:53 | N 7 | 10.00 | Fair | CLR | 80.1 | 73 | 79% | 84 | 29.97 | 1014.8 | ||||||
| 08 | 22:53 | NW 10 | 10.00 | Fair | CLR | 80.1 | 73 | 79% | 84 | 29.97 | 1014.8 | ||||||
| 08 | 21:53 | NW 12 | 10.00 | Fair | CLR | 80.1 | 72 | 76% | 84 | 29.95 | 1014.2 | ||||||
| 08 | 20:53 | W 12 | 10.00 | Fair | CLR | 82 | 70 | 67% | 86 | 29.93 | 1013.5 | ||||||
| 08 | 19:53 | NW 13 | 10.00 | Fair | CLR | 82.9 | 70 | 88 | 82.9 | 65% | 87 | 29.91 | 1012.8 | ||||
| 08 | 18:53 | W 12 | 10.00 | Fair | CLR | 86 | 68 | 55% | 89 | 29.9 | 1012.4 | ||||||
| 08 | 17:53 | W 10 | 10.00 | Fair | CLR | 86 | 69.1 | 57% | 90 | 29.89 | 1012.2 | ||||||
| 08 | 16:53 | W 10 | 10.00 | Fair | CLR | 86 | 72 | 63% | 92 | 29.9 | 1012.3 | ||||||
| 08 | 15:53 | W 10 | 10.00 | Fair | CLR | 86 | 73 | 65% | 93 | 29.92 | 1013.0 | ||||||
| 08 | 14:53 | W 13 | 10.00 | Fair | CLR | 87.1 | 73.9 | 65% | 95 | 29.94 | 1013.9 | ||||||
| 08 | 13:53 | W 14 | 10.00 | Fair | CLR | 86 | 75 | 87.1 | 78.1 | 70% | 95 | 29.97 | 1014.9 | ||||
| 08 | 12:53 | W 12 | 10.00 | Fair | CLR | 86 | 73.9 | 67% | 94 | 29.99 | 1015.4 | ||||||
| 08 | 11:53 | W 10 | 10.00 | A Few Clouds | FEW029 | 84.9 | 73.9 | 70% | 92 | 30.01 | 1016.1 | ||||||
| 08 | 10:53 | W 8 | 10.00 | Fair | CLR | 84 | 73.9 | 72% | 91 | 30.02 | 1016.4 | ||||||
| 08 | 09:53 | Vrbl 6 | 10.00 | A Few Clouds | FEW024 | 81 | 73 | 77% | 86 | 30.02 | 1016.5 | ||||||
| 08 | 08:53 | NW 6 | 10.00 | A Few Clouds | FEW025 | 80.1 | 73 | 79% | 84 | 30.01 | 1016.2 | ||||||
| 08 | 07:53 | W 6 | 10.00 | Fair | CLR | 78.1 | 75 | 78.1 | 73.9 | 90% | 81 | 29.99 | 1015.4 | ||||
| 08 | 06:53 | NW 3 | 10.00 | Fair | CLR | 75 | 72 | 90% | 74 | 29.96 | 1014.6 | ||||||
| 08 | 05:53 | NW 3 | 10.00 | Fair | CLR | 75 | 71.1 | 88% | 75 | 29.95 | 1014.1 | ||||||
| 08 | 04:53 | Calm | 10.00 | Fair | CLR | 75 | 71.1 | 88% | 75 | 29.94 | 1013.8 | ||||||
| 08 | 03:53 | NW 3 | 10.00 | Fair | CLR | 75 | 70 | 84% | 75 | 29.94 | 1013.8 | ||||||
| 08 | 02:53 | W 8 | 10.00 | Fair | CLR | 77 | 70 | 79% | 79 | 29.95 | 1014.0 | ||||||
| 08 | 01:53 | W 7 | 10.00 | Fair | CLR | 77 | 72 | 80.1 | 77 | 85% | 78 | 29.96 | 1014.5 | ||||
| 08 | 00:53 | W 7 | 10.00 | Fair | CLR | 77 | 72 | 85% | 78 | 29.97 | 1014.8 | ||||||
| 07 | 23:53 | W 6 | 10.00 | Fair | CLR | 78.1 | 73 | 85% | 81 | 29.98 | 1015.1 | ||||||
| 07 | 22:53 | W 6 | 10.00 | Fair | CLR | 78.1 | 73 | 85% | 81 | 29.98 | 1015.0 | ||||||
| 07 | 21:53 | W 6 | 10.00 | Fair | CLR | 78.1 | 73 | 85% | 81 | 29.97 | 1014.9 | ||||||
| 07 | 20:53 | W 7 | 10.00 | Fair | CLR | 78.1 | 72 | 82% | 80 | 29.97 | 1014.7 | ||||||
| 07 | 19:53 | SW 7 | 10.00 | Fair | CLR | 80.1 | 71.1 | 84 | 80.1 | 74% | 84 | 29.96 | 1014.5 | ||||
| 07 | 18:53 | W 8 | 10.00 | Fair | CLR | 82 | 70 | 67% | 86 | 29.96 | 1014.5 | ||||||
| 07 | 17:53 | SW 8 | 10.00 | Fair | CLR | 82.9 | 72 | 70% | 88 | 29.96 | 1014.5 | ||||||
| 07 | 16:53 | SW 8 | 10.00 | Fair | CLR | 82 | 72 | 72% | 87 | 29.97 | 1014.6 | ||||||
| 07 | 15:53 | W 12 | 10.00 | Fair | CLR | 82.9 | 72 | 70% | 88 | 29.98 | 1015.0 | ||||||
| 07 | 14:53 | SW 10 | 10.00 | Fair | CLR | 82.9 | 72 | 70% | 88 | 30 | 1015.7 | ||||||
| 07 | 13:53 | SW 10 G 20 | 10.00 | Fair | CLR | 82.9 | 72 | 84 | 73 | 70% | 88 | 30.02 | 1016.5 | ||||
| 07 | 12:53 | SW 12 | 10.00 | Fair | CLR | 82 | 72 | 72% | 87 | 30.03 | 1016.8 | ||||||
| 07 | 11:53 | SW 13 | 10.00 | Fair | CLR | 82 | 72 | 72% | 87 | 30.04 | 1017.1 | ||||||
| 07 | 10:53 | S 12 | 10.00 | Fair | CLR | 82 | 71.1 | 69% | 86 | 30.04 | 1017.0 | ||||||
| 07 | 09:53 | SW 12 | 10.00 | Fair | CLR | 80.1 | 70 | 71% | 83 | 30.03 | 1016.8 | ||||||
| 07 | 08:53 | S 8 | 10.00 | Fair | CLR | 78.1 | 72 | 82% | 80 | 30.02 | 1016.3 | ||||||
| 07 | 07:53 | S 6 | 10.00 | Fair | CLR | 73 | 70 | 75 | 71.1 | 90% | 30 | 1015.9 | |||||
| 07 | 06:53 | SE 3 | 10.00 | Fair | CLR | 71.1 | 68 | 90% | 29.99 | 1015.6 | |||||||
| 07 | 05:53 | SE 3 | 10.00 | Fair | CLR | 72 | 69.1 | 91% | 29.98 | 1015.2 | |||||||
| 07 | 04:53 | S 3 | 10.00 | Fair | CLR | 73 | 70 | 90% | 29.97 | 1014.8 | |||||||
| 07 | 03:53 | E 3 | 10.00 | Fair | CLR | 73.9 | 71.1 | 91% | 29.96 | 1014.4 | |||||||
| 07 | 02:53 | E 5 | 10.00 | Fair | CLR | 75 | 72 | 90% | 74 | 29.97 | 1014.8 | ||||||
| 07 | 01:53 | E 3 | 10.00 | Fair | CLR | 75 | 72 | 79 | 75 | 90% | 74 | 30 | 1015.7 | ||||
| 07 | 00:53 | NE 3 | 10.00 | Fair | CLR | 75.9 | 72 | 88% | 76 | 30.02 | 1016.3 | ||||||
| 06 | 23:53 | Calm | 10.00 | Fair | CLR | 75.9 | 72 | 88% | 76 | 30.01 | 1016.1 | ||||||
| 06 | 22:53 | N 3 | 10.00 | Fair | CLR | 75.9 | 72 | 88% | 76 | 30 | 1015.9 | ||||||
| 06 | 21:53 | W 6 | 10.00 | Fair | CLR | 77 | 73 | 88% | 78 | 30 | 1015.8 | ||||||
| 06 | 20:53 | W 7 | 10.00 | Fair | CLR | 77 | 72 | 85% | 78 | 30 | 1015.6 | ||||||
| 06 | 19:53 | W 9 | 10.00 | Fair | CLR | 79 | 72 | 84 | 79 | 79% | 82 | 30 | 1015.8 | ||||
| 06 | 18:53 | W 9 | 10.00 | Fair | CLR | 80.1 | 72 | 76% | 84 | 30 | 1015.7 | ||||||
| 06 | 17:53 | SW 10 | 10.00 | Fair | CLR | 82 | 71.1 | 69% | 86 | 29.99 | 1015.6 | ||||||
| 06 | 16:53 | SW 12 | 10.00 | Fair | CLR | 82 | 73 | 74% | 87 | 30 | 1015.6 | ||||||
| 06 | 15:53 | SW 12 | 10.00 | Fair | CLR | 82.9 | 73 | 72% | 89 | 30 | 1015.8 | ||||||
| 06 | 14:53 | SW 14 G 22 | 10.00 | Fair | CLR | 82.9 | 73 | 72% | 89 | 30.01 | 1016.2 | ||||||
| 06 | 13:53 | SW 13 | 10.00 | Fair | CLR | 84 | 73 | 87.1 | 71.1 | 70% | 90 | 30.03 | 1016.9 | ||||
| 06 | 12:53 | SW 14 | 10.00 | Fair | CLR | 84 | 73 | 70% | 90 | 30.04 | 1017.2 | ||||||
| 06 | 11:53 | S 14 | 10.00 | A Few Clouds | FEW029 FEW034 | 84.9 | 72 | 65% | 91 | 30.04 | 1017.3 | ||||||
| 06 | 10:53 | SE 10 | 10.00 | Fair | CLR | 84 | 70 | 63% | 88 | 30.04 | 1017.0 | ||||||
| 06 | 09:53 | SE 10 | 10.00 | Fair | CLR | 82 | 70 | 67% | 86 | 30.03 | 1017.0 | ||||||
| 06 | 08:53 | SE 10 | 10.00 | Fair | CLR | 77 | 70 | 79% | 79 | 30.02 | 1016.6 | ||||||
| 06 | 07:53 | SE 7 | 10.00 | Fair | CLR | 71.1 | 68 | 73.9 | 70 | 90% | 30.02 | 1016.3 | |||||
| 06 | 06:53 | E 5 | 10.00 | Fair | CLR | 70 | 66.9 | 90% | 30 | 1015.7 | |||||||
| 06 | 05:53 | E 6 | 10.00 | Fair | CLR | 70 | 66.9 | 90% | 29.99 | 1015.4 | |||||||
| 06 | 04:53 | E 6 | 10.00 | Fair | CLR | 71.1 | 66.9 | 87% | 29.98 | 1015.2 | |||||||
| 06 | 03:53 | SE 7 | 10.00 | Fair | CLR | 72 | 66.9 | 84% | 29.98 | 1015.2 | |||||||
| 06 | 02:53 | E 7 | 10.00 | Fair | CLR | 73 | 66 | 79% | 30 | 1015.6 | |||||||
| 06 | 01:53 | E 7 | 10.00 | Fair | CLR | 73.9 | 66 | 78.1 | 73.9 | 76% | 30 | 1015.8 | |||||
| Date | Time (edt) | Wind (mph) | Vis. (mi.) | Weather | Sky Cond. | Air | Dwpt | Max. | Min. | Relative Humidity | Wind Chill (°F) | Heat Index (°F) | altimeter (in) | sea level (mb) | 1 hr | 3 hr | 6 hr |
| 6 hour | |||||||||||||||||
| Temperature (ºF) | Pressure | Precipitation (in) | |||||||||||||||